Location: Stilling
(56.0622°N, 9.9882°E)
Time: 23:25:13
(UTC+00:00)

Cosmos 1943 Rocket - Pass Details

Date: 13 July 2020
Orbit: 811 x 845 km, 71.0° (Epoch: 14 August)

Event Time Altitude Azimuth Distance (km) Brightness Sun altitude
Rises 22:01:12 0° 324° (NW) 3,418 7.0 -10.2°
Reaches altitude 10° 22:03:43 10° 318° (NW) 2,478 5.9 -10.4°
Maximum altitude 22:09:08 47° 247° (WSW) 1,112 2.8 -10.6°
Enters shadow 22:13:52 13° 177° (S) 2,228 3.8 -10.8°
